Weather History for Anaktuvuk Pass, AK

Change the Weather History Date:

Tuesday, January 22, 2013

  Actual Average Record
Temperature  
Mean Temperature -24 °F -  
Max Temperature -20 °F -2 °F 28 °F (2014)
Min Temperature -29 °F -13 °F -36 °F (2002)
Degree Days  
Heating Degree Days 90    
Moisture  
Dew Point -28 °F    
Average Humidity 69    
Maximum Humidity 100    
Minimum Humidity 63    
Precipitation  
Precipitation 0.00 in - - ()
Sea Level Pressure  
Sea Level Pressure 30.00 in    
Wind  
Wind Speed 5 mph (North)    
Max Wind Speed 8 mph    
Max Gust Speed -    
Visibility 8 miles    
Events      
Averages and records for this station are not official NWS values.
T = Trace of Precipitation, MM = Missing Value Source: NWS Daily Summary

Daily Weather History Graph

Daily Weather History Graph

Search for Another Location

Airport:

Trip Planner

Search our weather history database for the weather conditions in past years. The results will help you decide how hot, cold, wet, or windy it might be!

Date:

Astronomy

Jan. 22, 2013 Rise Set
Actual Time 11:07 AM AKST 3:30 PM AKST
Civil Twilight 9:41 AM AKST 4:56 PM AKST
Nautical Twilight 8:26 AM AKST 6:12 PM AKST
Astronomical Twilight 7:19 AM AKST 7:19 PM AKST
Moon 11:12 AM AKST (1/22) 8:25 AM AKST (1/22)
Length of Visible Light 7h 14m
Length of Day
4h 23m
Waxing Gibbous, 84% of the Moon is Illuminated
Jan 22
Waxing Gibbous
Jan 26
Full
Feb 3
Last Quarter
Feb 9
New
Feb 17
First Quarter

Hourly Weather History & Observations

Time (AKST) Temp. Windchill Dew Point Humidity Pressure Visibility Wind Dir Wind Speed Gust Speed Precip Events Conditions
12:16 AM -22.0 °F -33.0 °F - N/A% 30.10 in 10.0 mi North 3.5 mph - N/A   Clear
12:36 AM -20.2 °F -37.3 °F -29.2 °F 63% 30.10 in 10.0 mi North 6.9 mph - N/A   Clear
12:56 AM -20.2 °F -35.5 °F - N/A% 30.11 in 10.0 mi North 5.8 mph - N/A   Clear
1:16 AM -20.2 °F -37.3 °F -29.2 °F 63% 30.11 in 10.0 mi NNE 6.9 mph - N/A   Partly Cloudy
1:36 AM -20.2 °F -35.5 °F - N/A% 30.11 in 10.0 mi North 5.8 mph - N/A   Clear
1:56 AM -20.2 °F -35.5 °F -29.2 °F 63% 30.11 in 10.0 mi North 5.8 mph - N/A   Clear
2:16 AM -22.0 °F -37.7 °F - N/A% 30.10 in 10.0 mi North 5.8 mph - N/A   Clear
2:36 AM -22.0 °F -37.7 °F - N/A% 30.09 in 10.0 mi North 5.8 mph - N/A   Clear
2:56 AM -22.0 °F -39.4 °F - N/A% 30.08 in 10.0 mi North 6.9 mph - N/A   Clear
3:16 AM -22.0 °F -39.4 °F - N/A% 30.07 in 10.0 mi NNE 6.9 mph - N/A   Clear
3:36 AM -22.0 °F -39.4 °F - N/A% 30.07 in 10.0 mi North 6.9 mph - N/A   Clear
3:56 AM -22.0 °F -41.0 °F - N/A% 30.06 in 10.0 mi North 8.1 mph - N/A   Partly Cloudy
4:16 AM -22.0 °F -39.4 °F - N/A% 30.06 in 5.0 mi NNE 6.9 mph - N/A   Partly Cloudy
4:36 AM -22.0 °F -37.7 °F - N/A% 30.05 in 5.0 mi North 5.8 mph - N/A   Mostly Cloudy
4:56 AM -20.2 °F -35.5 °F - N/A% 30.05 in 3.0 mi North 5.8 mph - N/A   Mostly Cloudy
5:16 AM -22.0 °F -39.4 °F - N/A% 30.04 in 3.0 mi North 6.9 mph - N/A   Partly Cloudy
5:36 AM -20.2 °F -33.5 °F -29.2 °F 63% 30.04 in 8.0 mi North 4.6 mph - N/A   Clear
5:56 AM -22.0 °F -35.6 °F - N/A% 30.04 in 10.0 mi North 4.6 mph - N/A   Partly Cloudy
6:16 AM -23.8 °F -39.8 °F - N/A% 30.03 in 5.0 mi North 5.8 mph - N/A   Mostly Cloudy
6:56 AM -23.8 °F -39.8 °F - N/A% 30.03 in 8.0 mi North 5.8 mph - N/A   Overcast
7:16 AM -23.8 °F -37.7 °F - N/A% 30.03 in 8.0 mi NNW 4.6 mph - N/A   Overcast
7:36 AM -23.8 °F -43.2 °F - N/A% 30.03 in 4.0 mi North 8.1 mph - N/A   Overcast
7:56 AM -22.0 °F -37.7 °F - N/A% 30.03 in 2.0 mi North 5.8 mph - N/A   Overcast
8:16 AM -23.8 °F -37.7 °F - N/A% 30.02 in 5.0 mi North 4.6 mph - N/A   Overcast
8:36 AM -23.8 °F - - N/A% 30.02 in 4.0 mi Calm Calm - N/A   Overcast
8:56 AM -22.0 °F -33.0 °F - N/A% 30.02 in 5.0 mi North 3.5 mph - N/A   Mostly Cloudy
9:16 AM -22.0 °F -39.4 °F - N/A% 30.02 in 6.0 mi NNE 6.9 mph - N/A   Mostly Cloudy
9:36 AM -23.8 °F -35.0 °F - N/A% 30.01 in 6.0 mi NNE 3.5 mph - N/A   Scattered Clouds
9:56 AM -20.2 °F -35.5 °F - N/A% 30.00 in 10.0 mi North 5.8 mph - N/A   Mostly Cloudy
10:16 AM -22.0 °F -39.4 °F -29.2 °F 69% 30.00 in 8.0 mi NNE 6.9 mph - N/A   Partly Cloudy
10:36 AM -22.0 °F -37.7 °F - N/A% 30.00 in 3.0 mi NNE 5.8 mph - N/A   Clear
10:56 AM -23.8 °F -41.6 °F - N/A% 30.00 in 10.0 mi NNE 6.9 mph - N/A   Clear
11:16 AM -23.8 °F -39.8 °F - N/A% 30.00 in 10.0 mi NNE 5.8 mph - N/A   Clear
11:36 AM -20.2 °F -35.5 °F -29.2 °F 63% 30.00 in 7.0 mi NNE 5.8 mph - N/A   Clear
11:56 AM -20.2 °F -35.5 °F -20.2 °F 100% 30.00 in 4.0 mi North 5.8 mph - N/A   Clear
12:16 PM -22.0 °F -37.7 °F - N/A% 30.00 in 5.0 mi North 5.8 mph - N/A   Clear
12:36 PM -22.0 °F -35.6 °F - N/A% 30.00 in 5.0 mi North 4.6 mph - N/A   Clear
12:56 PM -22.0 °F -35.6 °F - N/A% 30.00 in 9.0 mi North 4.6 mph - N/A   Clear
1:16 PM -22.0 °F -35.6 °F - N/A% 30.00 in 4.0 mi North 4.6 mph - N/A   Clear
1:36 PM -23.8 °F -37.7 °F - N/A% 30.00 in 8.0 mi North 4.6 mph - N/A   Clear
1:56 PM -23.8 °F -41.6 °F - N/A% 30.00 in 7.0 mi North 6.9 mph - N/A   Clear
2:16 PM -23.8 °F -35.0 °F - N/A% 29.99 in 5.0 mi North 3.5 mph - N/A   Clear
2:36 PM -25.6 °F -41.9 °F - N/A% 29.98 in 9.0 mi North 5.8 mph - N/A   Clear
2:56 PM -23.8 °F -37.7 °F - N/A% 29.98 in 5.0 mi North 4.6 mph - N/A   Clear
3:16 PM -23.8 °F -37.7 °F - N/A% 29.98 in 9.0 mi North 4.6 mph - N/A   Clear
3:36 PM -23.8 °F -35.0 °F - N/A% 29.98 in 4.0 mi North 3.5 mph - N/A   Clear
3:56 PM -23.8 °F -37.7 °F - N/A% 29.97 in 5.0 mi North 4.6 mph - N/A   Clear
4:16 PM -25.6 °F -41.9 °F - N/A% 29.96 in 8.0 mi North 5.8 mph - N/A   Clear
4:36 PM -25.6 °F -37.1 °F - N/A% 29.96 in 7.0 mi North 3.5 mph - N/A   Clear
4:56 PM -25.6 °F -37.1 °F - N/A% 29.96 in 7.0 mi North 3.5 mph - N/A   Clear
5:16 PM -25.6 °F -37.1 °F - N/A% 29.95 in 8.0 mi North 3.5 mph - N/A   Clear
5:36 PM -25.6 °F -39.8 °F - N/A% 29.95 in 9.0 mi North 4.6 mph - N/A   Clear
5:56 PM -25.6 °F -39.8 °F - N/A% 29.94 in 10.0 mi North 4.6 mph - N/A   Clear
6:16 PM -25.6 °F -39.8 °F - N/A% 29.94 in 8.0 mi North 4.6 mph - N/A   Clear
6:36 PM -25.6 °F -39.8 °F - N/A% 29.94 in 9.0 mi North 4.6 mph - N/A   Clear
6:56 PM -25.6 °F -39.8 °F - N/A% 29.94 in 7.0 mi North 4.6 mph - N/A   Clear
7:16 PM -25.6 °F -39.8 °F - N/A% 29.94 in 9.0 mi North 4.6 mph - N/A   Clear
7:36 PM -25.6 °F -37.1 °F - N/A% 29.94 in 9.0 mi North 3.5 mph - N/A   Clear
7:56 PM -25.6 °F -39.8 °F - N/A% 29.94 in 10.0 mi North 4.6 mph - N/A   Clear
8:16 PM -25.6 °F -39.8 °F - N/A% 29.94 in 8.0 mi North 4.6 mph - N/A   Clear
8:36 PM -25.6 °F -41.9 °F - N/A% 29.94 in 10.0 mi North 5.8 mph - N/A   Clear
8:56 PM -25.6 °F -39.8 °F - N/A% 29.94 in 8.0 mi NNW 4.6 mph - N/A   Clear
9:16 PM -25.6 °F -39.8 °F - N/A% 29.95 in 10.0 mi North 4.6 mph - N/A   Clear
9:36 PM -27.4 °F -44.1 °F - N/A% 29.95 in 10.0 mi North 5.8 mph - N/A   Clear
9:56 PM -27.4 °F -41.9 °F - N/A% 29.95 in 10.0 mi North 4.6 mph - N/A   Clear
10:16 PM -27.4 °F -41.9 °F - N/A% 29.95 in 10.0 mi North 4.6 mph - N/A   Clear
10:36 PM -27.4 °F -39.2 °F - N/A% 29.95 in 10.0 mi North 3.5 mph - N/A   Clear
10:56 PM -27.4 °F -41.9 °F - N/A% 29.95 in 10.0 mi North 4.6 mph - N/A   Clear
11:16 PM -27.4 °F -39.2 °F - N/A% 29.95 in 10.0 mi North 3.5 mph - N/A   Clear
11:36 PM -29.2 °F -41.2 °F - N/A% 29.95 in 10.0 mi North 3.5 mph - N/A   Clear
11:56 PM -29.2 °F -41.2 °F - N/A% 29.95 in 9.0 mi North 3.5 mph - N/A   Clear